Regional Weather Roundup
Issued by NWS Wakefield, VA

Home | Current Version | Previous Version | Graphics & Text | Print | Product List | Glossary On
Versions: 1 2 3 4 5 6 7 8 9 10 11 12 13 14 15 16 17 18 19 20 21 22 23 24 25 26 27 28
000
ASUS41 KAKQ 262115
RWRAKQ

REGIONAL WEATHER ROUNDUP
NATIONAL WEATHER SERVICE WAKEFIELD VA
500 PM EDT THU MAY 26 2016

Note: "fair" indicates few or no clouds below 12,000 feet with no
significant weather and/or obstructions to visibility. * = Denotes
station may not report precipitation (e.g., rain,snow,etc.),
thunder or fog.

VAZ042-051-052>054-056-262200-
NORTHERN VIRGINIA

CITY           SKY/WX    TMP DP  RH WIND       PRES   REMARKS
WASH NATIONAL  PTSUNNY   88  64  44 S13       30.02F
DULLES         FAIR      88  61  40 SW14      30.03F
FORT BELVOIR   FAIR      89  63  42 VRB5      30.02F
QUANTICO       PTSUNNY   81  69  67 VRB5      30.03F
FREDERICKSBRG* NOT AVBL
STAFFORD*      FAIR      87  61  42 S6        30.07F
WARRENTON      FAIR      85  57  38 S8        30.03F
CULPEPER*      FAIR      89  65  44 S9        30.04S
MANASSAS*      SUNNY     90  63  40 SW9       30.03F
LEESBURG*      FAIR      90  64  43 S6G20     30.03F
WINCHESTER     FAIR      88  61  40 S7        30.03F
FRONT ROYAL*   MOCLDY    86  61  42 S6        30.03F
LURAY*         FAIR      86  61  42 S8        30.04F
$$

VAZ048-049-060>072-079>083-262200-
CENTRAL AND SOUTH CENTRAL VIRGINIA

CITY           SKY/WX    TMP DP  RH WIND       PRES   REMARKS
RICHMOND       FAIR      88  59  37 S13       30.05F
CHESTERFIELD*  FAIR      90  57  33 S12       30.07F
PETERSBURG*    FAIR      89  59  36 SW7       30.07F
HANOVER        FAIR      88  58  36 SW8       30.06F
TAPPAHANNOCK*  FAIR      90  58  33 SW8       30.06F
QUINTON*       FAIR      89  59  36 SW3       30.06F
CHARLOTTSVILLE FAIR      85  62  46 SW8       30.05F
GORDONSVILLE*  FAIR      86  65  49 S14       30.04F
ORANGE*        FAIR      88  63  42 SW9G16    30.07S
LOUISA*        FAIR      88  70  55 CALM      30.05F
BUMPASS*       FAIR      87  63  44 SW9       30.05F
FARMVILLE*     NOT AVBL
CREWE*         FAIR      88  64  45 SW7       30.07F
FORT PICKETT*  NOT AVBL
CHASE CITY*    FAIR      87  62  43 CALM      30.08F
CLARKSVILLE*   FAIR      86  64  48 S6        30.08F
SOUTH HILL*    FAIR      86  64  48 SW12      30.14F
LAWRENCEVILLE* FAIR      86  63  46 SW7       30.08S
EMPORIA*       FAIR      86  61  42 S5        30.09F
$$

VAZ088>098-262200-
SOUTHEAST VIRGINIA

CITY           SKY/WX    TMP DP  RH WIND       PRES   REMARKS
NORFOLK        PTSUNNY   84  62  47 NE7       30.07F
VIRGINIA BEACH FAIR      92  58  31 S12       30.07F
NORFOLK NAVAL  FAIR      89  60  37 W7        30.09S
WEST POINT*    FAIR      88  54  31 S8        30.08S
SALUDA*        FAIR      88  62  41 SW5       30.06F
NEWPORT NEWS   FAIR      88  61  40 S10       30.07F
LANGLEY AFB    FAIR      89  62  41 S9        30.07F
FORT EUSTIS    FAIR      88  68  51 S9        30.05F
WILLIAMSBURG*  FAIR      91  61  35 SW5       30.07F
HR EXEC AP*    MOCLDY    88  63  42 SW6       30.10S
FRANKLIN*      FAIR      87  59  38 SW6       30.08F
US460-WAKEFLD  FAIR      89  57  33 SW9       30.07F
$$

VAZ020-022-025-037-045-262200-
WEST CENTRAL AND SOUTHWEST VIRGINIA

CITY           SKY/WX    TMP DP  RH WIND       PRES   REMARKS
STAUNTON*      FAIR      82  62  49 S10       30.08F
WAYNESBORO*    FAIR      81  60  49 SW5       30.09F
HOT SPRINGS VA CLOUDY    69  60  73 W15       30.20F
LYNCHBURG      FAIR      84  61  45 SW8       30.09F
DANVILLE       FAIR      85  63  47 SW6       30.08F
SOUTH BOSTON*  FAIR      86  63  45 SW6       30.07F
MARTINSVILLE   PTSUNNY   83  61  47 CALM      30.12F
ROANOKE        PTSUNNY   79  64  60 VRB5      30.12S
BLACKSBURG     FAIR      77  64  64 CALM      30.17F
DUBLIN*        CLOUDY    79  62  54 NW7       30.16F
MARION*        CLOUDY    73  62  67 W10       30.21S
HILLSVILLE*    CLOUDY    69  64  83 SE3       30.18S
RICHLANDS*     MOCLDY    72  58  60 W5        30.19F
WISE*          PTSUNNY   73  57  56 CALM      30.19S
ABINGDON*      PTSUNNY   73  64  74 CALM      30.17F
$$

MDZ021>025-VAZ099-100-262200-
SOUTHERN MARYLAND AND THE DELMARVA PENINSULA

CITY           SKY/WX    TMP DP  RH WIND       PRES   REMARKS
PATUXENT RIVER MOSUNNY   82  66  58 SE10      30.04F
BAY BRIDGE APT SUNNY     88  64  45 S12       30.03F
LEONARDTOWN    SUNNY     88  55  33 SW8       30.06F
DOVER          MOSUNNY   84  66  55 E13       30.04F
GEORGETOWN     SUNNY     89  54  30 SW12      30.06F
EASTON           N/A     90  68  48 S7        30.08F
CAMBRIDGE      SUNNY     86  63  45 S9        30.05S
SALISBURY      SUNNY     88  56  33 S10       30.06F
OCEAN CITY     SUNNY     74  66  76 S8        30.08F
WALLOPS ISLAND FAIR      78  66  66 S18       30.09F
ACCOMACK*      FAIR      84  63  48 S12       30.09S
$$

NCZ012>017-030>032-262200-
NORTH CENTRAL AND EASTERN NORTH CAROLINA

CITY           SKY/WX    TMP DP  RH WIND       PRES   REMARKS
ROANOKE RAPIDS FAIR      86  59  39 S5        30.08F
RALEIGH        MOSUNNY   88  62  41 W10       30.10F
ELIZABETH CITY SUNNY     87  60  40 S12       30.10F
AHOSKIE*       SUNNY     87  60  40 S5        30.09F
EDENTON*       SUNNY     88  56  33 SW5       30.11F
CURRITUCK*     SUNNY     87  61  40 S9        30.10F
KILL DEVIL HLS SUNNY     84  66  53 S9G16     30.12S
MANTEO         NOT AVBL
CAPE HATTERAS  SUNNY     78  68  71 SW9       30.17S
TARBORO*       FAIR      88  60  38 SW6       30.10F
GOLDSBORO      SUNNY     89  58  35 W6        30.09F
WASHINGTON     SUNNY     87  61  41 S7        30.10F
GREENVILLE     MOSUNNY   88  61  40 SW9       30.12S
NEW BERN       SUNNY     83  63  50 S14G22    30.14S
WILMINGTON     SUNNY     83  63  50 S10       30.14F
$$

VAZ048-262200-
ELSEWHERE

CITY           SKY/WX    TMP DP  RH WIND       PRES   REMARKS
HARRISBURG PA  CLOUDY    85  58  39 W5        30.01S
BALTIMORE      PTSUNNY   88  61  40 SW8       30.02F
ANNAPOLIS      SUNNY     82  65  56 S10       30.03F
ANDREWS AFB    FAIR      88  62  41 SW12      30.03F
PHILADELPHIA   MOSUNNY   88  54  31 SW8       30.04F
HENDERSON NC   MOSUNNY   84  61  46 SW8       30.09F
GREENSBORO     MOSUNNY   84  59  42 W7        30.09F
ROCKY MOUNT    SUNNY     87  61  41 VRB3      30.09F
$$

VAZ100-262200-
MARINE

STATION/POSITION TIME  TEMP    WIND        PRES    WAVE   SWELL
                       AIR SEA DIR/SP/G            HT/PER HT/PER
                 (UTC) (F)     (DEG/KT/KT) (MB)    (FT/S) (FT/S)
BRANDYWINE LGT   2000   66     150/ 11/ 12 1018.5F
CAPE MAY NJ      2000   74 65  130/ 10/ 12 1018.4F
LEWES DE         2000   79 63  150/  8/ 10 1018.1F
15NM E FENWICK I 2050   65 59              1018.7F   2/ 8
OCEAN-CITY-INLET 2000   66 61  210/ 12/ 14 1019.1F
WACHAPREAGUE VA  2000   79 80  180/  9/ 12 1018.6F
THOMAS POINT MD  2100   72 67  190/ 11/ 12 1018.2F
GOOSES REEF MD   2100   71 67  160/ 12/ 14 1018.2F   2/ 3
COVE POINT MD    2000   72     190/ 11/ 13 1018.4F
SOLOMONS ISLAND  2000   75 67   70/  3/  6   N/A
BISHOPS HEAD MD  2000   74 80  150/  9/ 10 1018.3F
PINEY POINT MD   2000          130/  6/  7   N/A
POTOMAC MD       2100   75 66  160/  8/ 10 1016.7F   1/ 2
CAMBRIDGE MD     2000   87 64  210/  7/ 10 1017.0F
LEWISETTA VA     2000   87 74  220/ 10/ 11 1017.4F
RAPPAHANNOCK LGT 2000          170/ 11/ 11 1019.3F
STINGRAY PT      2000   74 68  160/ 10/ 12 1018.8F   1/ 2
YORK RVR RNG VA  2000   75     100/  4/  5 1018.1F
YORKTOWN VA      2000   87 66  250/  6/ 13 1018.2F
JAMESTOWN VA     2100   85 72  230/  4/  6   N/A
DOMINION TERM VA 2000   81     210/  6/  7 1018.8F
KIPTOPEKE VA     2000      68  170/ 14/ 15   N/A
CHES BAY BRIDGE  2000   78 67   50/  6/  7 1018.8F
CAPE HENRY VA    2000   83     110/  6/  9   N/A
CHESAPEAKE LGHT  2000   71     170/ 24/ 25 1019.2F
WILLOUBY STN VA  2000   85     250/  8/  9 1019.7F
CAPE HENRY BUOY  2012      65                N/A     2/ 8
1ST LANDING BUOY 2100   74 70  120/ 12/ 16 1018.6F   1/ 3
CAPE CHARLES BUO 2026      65                N/A     2/ 9   2/20
OFFSHORE WE BUOY 2021      62                N/A     2/ 7   2/ 7
64NM E OF VA BCH 2050   65 60  180/ 10/ 12 1020.4F   2/ 8   2/ 8
DUCK PIER NC     2000   76 64  150/ 11/ 13 1019.2F
44100 DUCK FRF   2024      68                N/A     2/ 9
44056 DUCK FRF   2011      68                N/A     2/ 8
OREGON INLET NC  2000   76 76  190/ 18/ 19 1020.7F
HATTERAS NC      2000   76 72  200/  9/ 12 1021.1F
DIAMOND SHLS NC  2050   75 73  230/  4/  4 1021.5F   2/ 8   2/ 8
CAPE LOOKOUC1F1C2F2C3F3C4F4C5F5C6F6C7F7C8M1C9!



USA.gov is the U.S. government's official web portal to all federal, state and local government web resources and services.